Simultaneous Nadir Overpasses (SNOs) Predictions

Prediction of SNOs between LANDSAT-8 and NOAA-19 Satellite Orbit:

Table of predicted SNOs for the next 14.0 days since TLE Epoch: 1/10/2015
Index Date (LANDSAT-8) Time (LANDSAT-8) Lat,Lon (LANDSAT-8) SZA (LANDSAT-8 ) Date (NOAA-19) Time (NOAA-19) Lat,Lon (NOAA-19) SZA (NOAA-19 ) Distance(km) Time Diff (sec)
1 01/11/2015 04:16:58 -72.70, -63.76 85.54 01/11/2015 04:16:07 -72.72, -63.86 85.52 3.71 51
2 01/11/2015 05:06:26 72.56, 103.61 94.32 01/11/2015 05:07:07 72.58, 103.68 94.34 3.04 41
3 01/13/2015 09:01:01 -73.44,-133.36 85.16 01/13/2015 08:59:55 -73.45,-136.37 85.11 95.29 66
4 01/13/2015 09:50:41 72.66, 32.73 94.07 01/13/2015 09:50:42 72.64, 32.69 94.05 2.82 1
5 01/13/2015 10:40:21 -72.01,-160.81 86.58 01/13/2015 10:41:29 -72.01,-158.76 86.61 70.38 68
6 01/15/2015 14:34:57 72.69, -38.28 93.71 01/15/2015 14:34:17 72.71, -38.32 93.74 2.53 40
7 01/15/2015 15:24:27 -72.58, 129.14 86.41 01/15/2015 15:25:14 -72.61, 129.15 86.38 3.12 47
8 01/17/2015 19:19:08 72.97,-108.81 93.57 01/17/2015 19:17:57 73.04,-109.89 93.65 36.09 71
9 01/17/2015 20:08:42 -72.65, 58.20 86.76 01/17/2015 20:08:48 -72.66, 58.18 86.75 1.60 6
10 01/20/2015 00:52:57 -72.70, -12.77 87.17 01/20/2015 00:52:22 -72.72, -12.80 87.14 2.64 35
11 01/20/2015 01:42:24 72.60, 154.68 92.74 01/20/2015 01:43:25 72.62, 154.64 92.76 2.90 61
12 01/22/2015 05:37:11 -72.78, -83.68 87.56 01/22/2015 05:35:57 -72.84, -83.90 87.50 9.25 74
13 01/22/2015 06:26:38 72.68, 83.77 92.34 01/22/2015 06:26:59 72.66, 83.70 92.32 3.44 21




NCC Satellite Simultaneous Nadir Overpasses (SNOs) Prediction Service
